OK,112,36,623,112,2014-10-01T01:40:00,0,28071950,210199
OK,112,36,623,112,2014-10-01T01:45:00,0,28072393,210199
OK,112,36,623,112,2014-10-01T01:50:00,0,28072842,210199
OK,112,36,623,112,2014-10-01T01:55:00,0,28073289,210199
OK,112,36,623,112,2014-10-01T02:00:00,0,28073737,210199
OK,112,36,623,112,2014-10-01T02:05:00,0,28074055,210199
OK,112,36,623,112,2014-10-01T02:10:00,0,28074504,210199
OK,112,36,623,112,2014-10-01T02:15:00,0,28074944,210199
OK,112,36,623,112,2014-10-01T02:20:00,0,28075393,210199
OK,112,36,623,112,2014-10-01T02:25:00,0,28075842,210199
OK,112,36,623,112,2014-10-01T02:30:00,0,28076225,210199
OK,112,36,623,112,2014-10-01T02:35:00,0,28076674,210199
OK,112,36,623,112,2014-10-01T02:40:00,0,28077123,210199
OK,112,36,623,112,2014-10-01T02:45:00,0,28077572,210199
OK,112,36,623,112,2014-10-01T02:50:00,0,28077975,210199
OK,112,36,623,112,2014-10-01T02:55:00,0,28078424,210199
OK,112,36,623,112,2014-10-01T03:00:00,0,28078869,210199
OK,112,36,623,112,2014-10-01T03:05:00,0,28079317,210199
OK,112,36,623,112,2014-10-01T03:10:00,0,28079760,210199
OK,112,36,623,112,2014-10-01T03:15:00,0,28080209,210199
OK,112,36,623,112,2014-10-01T03:20:00,0,28080543,210199
OK,112,36,623,112,2014-10-01T03:25:00,0,28080992,210199
OK,112,36,623,112,2014-10-01T03:30:00,0,28081441,210199
OK,112,36,623,112,2014-10-01T03:35:00,0,28081888,210199
OK,112,36,623,112,2014-10-01T03:40:00,0,28082337,210199
OK,112,36,623,112,2014-10-01T03:45:00,0,28082770,210199
OK,112,36,623,112,2014-10-01T03:50:00,0,28083202,210199
OK,112,36,623,112,2014-10-01T03:55:00,0,28083651,210199
OK,112,36,623,112,2014-10-01T04:00:00,0,28084100,210199
OK,112,36,623,112,2014-10-01T04:05:00,0,28084541,210199
OK,112,36,623,112,2014-10-01T04:10:00,0,28084966,210199
OK,112,36,623,112,2014-10-01T04:15:00,0,28085415,210199
OK,112,36,623,112,2014-10-01T04:20:00,0,28085860,210199
OK,112,36,623,112,2014-10-01T04:25:00,0,28086309,210199
OK,112,36,623,112,2014-10-01T04:30:00,0,28086751,210199
OK,112,36,623,112,2014-10-01T04:35:00,0,28087200,210199
OK,112,36,623,112,2014-10-01T04:40:00,0,28087645,210199
OK,112,36,623,112,2014-10-01T04:45:00,0,28088094,210199
OK,112,36,623,112,2014-10-01T04:50:00,0,28088518,210199
OK,112,36,623,112,2014-10-01T04:55:00,0,28088967,210199
OK,112,36,623,112,2014-10-01T05:00:00,0,28089397,210199
OK,112,36,623,112,2014-10-01T05:05:00,0,28089846,210199
OK,112,36,623,112,2014-10-01T05:10:00,0,28090295,210199
OK,112,36,623,112,2014-10-01T05:15:00,0,28090639,210199
OK,808,5,623,808,2014-10-01T05:20:00,2,28091088,210199
OK,629,6,623,629,2014-10-01T05:25:00,1,28091537,210199
OK,866,4,623,866,2014-10-01T05:30:00,2,28091954,210199
OK,1103,3,623,1103,2014-10-01T05:35:00,1,28092403,210199
OK,1103,3,623,1103,2014-10-01T05:40:00,0,28092847,210199
OK,1103,3,623,1103,2014-10-01T05:45:00,0,28093288,210199
OK,536,7,623,536,2014-10-01T05:50:00,2,28093719,210199
OK,536,7,623,536,2014-10-01T05:55:00,2,28094168,210199
OK,533,7,623,533,2014-10-01T06:00:00,1,28094579,210199
OK,533,7,623,533,2014-10-01T06:05:00,1,28095024,210199
OK,533,7,623,533,2014-10-01T06:10:00,0,28095471,210199
OK,545,7,623,545,2014-10-01T06:15:00,1,28095920,210199
OK,545,7,623,545,2014-10-01T06:20:00,1,28096333,210199
OK,840,4,623,840,2014-10-01T06:25:00,1,28096782,210199
OK,642,6,623,642,2014-10-01T06:30:00,2,28097216,210199
OK,444,9,623,444,2014-10-01T06:35:00,1,28097665,210199
OK,444,9,623,444,2014-10-01T06:40:00,0,28098114,210199
OK,444,9,623,444,2014-10-01T06:45:00,0,28098551,210199
OK,444,9,623,444,2014-10-01T06:50:00,0,28098995,210199
OK,444,9,623,444,2014-10-01T06:55:00,0,28099443,210199
OK,444,9,623,444,2014-10-01T07:00:00,0,28099786,210199
OK,878,4,623,878,2014-10-01T07:05:00,1,28100235,210199
OK,878,4,623,878,2014-10-01T07:10:00,0,28100542,210199
OK,878,4,623,878,2014-10-01T07:15:00,0,28100991,210199
OK,380,10,623,380,2014-10-01T07:20:00,1,28101362,210199
OK,380,10,623,380,2014-10-01T07:25:00,0,28101811,210199
OK,380,10,623,380,2014-10-01T07:30:00,0,28102247,210199
OK,498,8,623,498,2014-10-01T07:35:00,1,28102696,210199
OK,498,8,623,498,2014-10-01T07:40:00,0,28103124,210199
OK,498,8,623,498,2014-10-01T07:45:00,0,28103570,210199
OK,498,8,623,498,2014-10-01T07:50:00,0,28104015,210199
OK,498,8,623,498,2014-10-01T07:55:00,0,28104460,210199
OK,498,8,623,498,2014-10-01T08:00:00,0,28104901,210199
OK,498,8,623,498,2014-10-01T08:05:00,0,28105346,210199
OK,498,8,623,498,2014-10-01T08:10:00,0,28105786,210199
OK,498,8,623,498,2014-10-01T08:15:00,0,28106235,210199
OK,498,8,623,498,2014-10-01T08:20:00,0,28106672,210199
OK,498,8,623,498,2014-10-01T08:25:00,0,28107078,210199
OK,498,8,623,498,2014-10-01T08:30:00,0,28107510,210199
OK,498,8,623,498,2014-10-01T08:35:00,0,28107959,210199
OK,498,8,623,498,2014-10-01T08:40:00,0,28108398,210199
OK,498,8,623,498,2014-10-01T08:45:00,0,28108847,210199
OK,498,8,623,498,2014-10-01T08:50:00,0,28109275,210199
OK,498,8,623,498,2014-10-01T08:55:00,0,28109724,210199
OK,498,8,623,498,2014-10-01T09:00:00,0,28110067,210199
OK,498,8,623,498,2014-10-01T09:05:00,0,28110516,210199
OK,498,8,623,498,2014-10-01T09:10:00,0,28110939,210199
OK,498,8,623,498,2014-10-01T09:15:00,0,28111388,210199
OK,498,8,623,498,2014-10-01T09:20:00,0,28111817,210199
OK,498,8,623,498,2014-10-01T09:25:00,0,28112266,210199
OK,498,8,623,498,2014-10-01T09:30:00,0,28112607,210199
OK,498,8,623,498,2014-10-01T09:35:00,0,28113056,210199
OK,498,8,623,498,2014-10-01T09:40:00,0,28113480,210199
OK,498,8,623,498,2014-10-01T09:45:00,0,28113929,210199
OK,498,8,623,498,2014-10-01T09:50:00,0,28114361,210199
OK,138,29,623,138,2014-10-01T09:55:00,1,28114810,210199
OK,0,0,623,0,2014-10-01T10:00:00,0,28115164,210199
OK,138,29,623,138,2014-10-01T10:05:00,0,28115613,210199
OK,138,29,623,138,2014-10-01T10:10:00,0,28116025,210199
OK,138,29,623,138,2014-10-01T10:15:00,0,28116474,210199
OK,138,29,623,138,2014-10-01T10:20:00,0,28116882,210199
OK,138,29,623,138,2014-10-01T10:25:00,0,28117331,210199
OK,83,49,623,83,2014-10-01T10:30:00,1,28117756,210199
OK,83,49,623,83,2014-10-01T10:35:00,1,28118205,210199
OK,83,49,623,83,2014-10-01T10:40:00,0,28118650,210199
OK,83,49,623,83,2014-10-01T10:45:00,0,28119097,210199
OK,83,49,623,83,2014-10-01T10:50:00,0,28119541,210199
OK,83,49,623,83,2014-10-01T10:55:00,0,28119989,210199
OK,83,49,623,83,2014-10-01T11:00:00,0,28120437,210199
OK,83,49,623,83,2014-10-01T11:05:00,0,28120886,210199
OK,83,49,623,83,2014-10-01T11:10:00,0,28121269,210199
OK,83,49,623,83,2014-10-01T11:15:00,0,28121718,210199
OK,83,49,623,83,2014-10-01T11:20:00,0,28122156,210199
OK,83,49,623,83,2014-10-01T11:25:00,0,28122605,210199
OK,83,49,623,83,2014-10-01T11:30:00,0,28123046,210199
OK,83,49,623,83,2014-10-01T11:35:00,0,28123495,210199
OK,83,49,623,83,2014-10-01T11:40:00,0,28123927,210199
OK,83,49,623,83,2014-10-01T11:45:00,0,28124376,210199
OK,83,49,623,83,2014-10-01T11:50:00,0,28124778,210199
OK,83,49,623,83,2014-10-01T11:55:00,0,28125227,210199
OK,83,49,623,83,2014-10-01T12:00:00,0,28125656,210199
OK,83,49,623,83,2014-10-01T12:05:00,0,28126105,210199
OK,83,49,623,83,2014-10-01T12:10:00,0,28126457,210199
OK,83,49,623,83,2014-10-01T12:15:00,0,28126906,210199
OK,83,49,623,83,2014-10-01T12:20:00,0,28127355,210199
OK,83,49,623,83,2014-10-01T12:25:00,0,28127804,210199
OK,83,49,623,83,2014-10-01T12:30:00,0,28128232,210199
OK,93,44,623,93,2014-10-01T12:35:00,2,28128681,210199
OK,93,44,623,93,2014-10-01T12:40:00,2,28129116,210199
OK,93,44,623,93,2014-10-01T12:45:00,0,28129565,210199
OK,93,44,623,93,2014-10-01T12:50:00,0,28129999,210199
OK,69,59,623,69,2014-10-01T12:55:00,1,28130448,210199
OK,69,59,623,69,2014-10-01T13:00:00,1,28130876,210199
OK,134,30,623,134,2014-10-01T13:05:00,1,28131325,210199
OK,134,30,623,134,2014-10-01T13:10:00,0,28131762,210199
OK,134,30,623,134,2014-10-01T13:15:00,0,28132211,210199
OK,134,30,623,134,2014-10-01T13:20:00,0,28132649,210199
OK,94,43,623,94,2014-10-01T13:25:00,2,28133096,210199
OK,94,43,623,94,2014-10-01T13:30:00,2,28133534,210199
OK,94,43,623,94,2014-10-01T13:35:00,0,28133983,210199
OK,94,43,623,94,2014-10-01T13:40:00,0,28134422,210199
OK,94,43,623,94,2014-10-01T13:45:00,0,28134871,210199
OK,99,41,623,99,2014-10-01T13:50:00,1,28135290,210199
OK,99,41,623,99,2014-10-01T13:55:00,1,28135739,210199
OK,99,41,623,99,2014-10-01T14:00:00,0,28136176,210199
OK,99,41,623,99,2014-10-01T14:05:00,0,28136625,210199
OK,99,41,623,99,2014-10-01T14:10:00,0,28137065,210199
OK,99,41,623,99,2014-10-01T14:15:00,0,28137514,210199
OK,92,44,623,92,2014-10-01T14:20:00,1,28137948,210199
OK,92,44,623,92,2014-10-01T14:25:00,0,28138397,210199
OK,92,44,623,92,2014-10-01T14:30:00,0,28138825,210199
OK,92,44,623,92,2014-10-01T14:35:00,0,28139274,210199
OK,92,44,623,92,2014-10-01T14:40:00,0,28139685,210199
OK,92,44,623,92,2014-10-01T14:45:00,0,28140134,210199
OK,92,44,623,92,2014-10-01T14:50:00,0,28140576,210199
OK,187,21,623,187,2014-10-01T14:55:00,1,28141025,210199
OK,187,21,623,187,2014-10-01T15:00:00,0,28141451,210199
OK,187,21,623,187,2014-10-01T15:05:00,0,28141900,210199
OK,187,21,623,187,2014-10-01T15:10:00,0,28142328,210199
OK,187,21,623,187,2014-10-01T15:15:00,0,28142777,210199
OK,187,21,623,187,2014-10-01T15:20:00,0,28143204,210199
OK,187,21,623,187,2014-10-01T15:25:00,0,28143653,210199
OK,187,21,623,187,2014-10-01T15:30:00,0,28144101,210199
OK,187,21,623,187,2014-10-01T15:35:00,0,28144550,210199
OK,187,21,623,187,2014-10-01T15:40:00,0,28144971,210199
OK,187,21,623,187,2014-10-01T15:45:00,0,28145385,210199
OK,60,68,623,60,2014-10-01T15:50:00,1,28145834,210199
OK,60,68,623,60,2014-10-01T15:55:00,1,28146283,210199
OK,60,68,623,60,2014-10-01T16:00:00,0,28146732,210199
OK,60,68,623,60,2014-10-01T16:05:00,0,28147140,210199
OK,60,68,623,60,2014-10-01T16:10:00,0,28147584,210199
OK,60,68,623,60,2014-10-01T16:15:00,0,28148033,210199
OK,60,68,623,60,2014-10-01T16:20:00,0,28148434,210199
OK,60,68,623,60,2014-10-01T16:25:00,0,28148883,210199
OK,60,68,623,60,2014-10-01T16:30:00,0,28149322,210199
OK,60,68,623,60,2014-10-01T16:35:00,0,28149771,210199
OK,60,68,623,60,2014-10-01T16:40:00,0,28150197,210199
OK,60,68,623,60,2014-10-01T16:45:00,0,28150646,210199
OK,60,68,623,60,2014-10-01T16:50:00,0,28151064,210199
OK,60,68,623,60,2014-10-01T16:55:00,0,28151513,210199
OK,60,68,623,60,2014-10-01T17:05:00,0,28151962,210199
OK,60,68,623,60,2014-10-01T17:10:00,0,28152411,210199
OK,60,68,623,60,2014-10-01T17:15:00,0,28152857,210199
OK,60,68,623,60,2014-10-01T17:20:00,0,28153304,210199
OK,60,68,623,60,2014-10-01T17:25:00,0,28153753,210199
OK,60,68,623,60,2014-10-01T17:30:00,0,28154163,210199
OK,60,68,623,60,2014-10-01T17:35:00,0,28154612,210199
OK,60,68,623,60,2014-10-01T17:40:00,0,28155054,210199
OK,60,68,623,60,2014-10-01T17:45:00,0,28155502,210199
OK,60,68,623,60,2014-10-01T17:50:00,0,28155920,210199
OK,60,68,623,60,2014-10-01T17:55:00,0,28156369,210199
OK,60,68,623,60,2014-10-01T18:00:00,0,28156817,210199
OK,60,68,623,60,2014-10-01T18:05:00,0,28157256,210199
OK,60,68,623,60,2014-10-01T18:10:00,0,28157686,210199
OK,60,68,623,60,2014-10-01T18:15:00,0,28158134,210199
OK,60,68,623,60,2014-10-01T18:20:00,0,28158578,210199
OK,60,68,623,60,2014-10-01T18:25:00,0,28159024,210199
OK,60,68,623,60,2014-10-01T18:30:00,0,28159470,210199
OK,60,68,623,60,2014-10-01T18:35:00,0,28159805,210199
OK,60,68,623,60,2014-10-01T18:40:00,0,28160254,210199
OK,60,68,623,60,2014-10-01T18:45:00,0,28160703,210199
OK,60,68,623,60,2014-10-01T18:50:00,0,28161141,210199
OK,60,68,623,60,2014-10-01T18:55:00,0,28161590,210199
OK,60,68,623,60,2014-10-01T19:00:00,0,28162007,210199
OK,60,68,623,60,2014-10-01T19:05:00,0,28162456,210199
OK,60,68,623,60,2014-10-01T19:10:00,0,28162850,210199
OK,60,68,623,60,2014-10-01T19:15:00,0,28163289,210199
OK,60,68,623,60,2014-10-01T19:20:00,0,28163737,210199
OK,60,68,623,60,2014-10-01T19:25:00,0,28164186,210199
OK,60,68,623,60,2014-10-01T19:30:00,0,28164617,210199
OK,60,68,623,60,2014-10-01T19:35:00,0,28165066,210199
OK,60,68,623,60,2014-10-01T19:40:00,0,28165491,210199
OK,60,68,623,60,2014-10-01T19:45:00,0,28165939,210199
OK,60,68,623,60,2014-10-01T19:50:00,0,28166380,210199
OK,60,68,623,60,2014-10-01T19:55:00,0,28166742,210199
OK,60,68,623,60,2014-10-01T20:00:00,0,28167191,210199
OK,60,68,623,60,2014-10-01T20:05:00,0,28167620,210199
OK,60,68,623,60,2014-10-01T20:10:00,0,28168053,210199
OK,60,68,623,60,2014-10-01T20:15:00,0,28168502,210199
OK,90,45,623,90,2014-10-01T20:20:00,1,28168947,210199
OK,90,45,623,90,2014-10-01T20:25:00,1,28169396,210199
OK,90,45,623,90,2014-10-01T20:30:00,0,28169844,210199
OK,90,45,623,90,2014-10-01T20:35:00,0,28170270,210199
OK,90,45,623,90,2014-10-01T20:40:00,0,28170715,210199
OK,90,45,623,90,2014-10-01T20:45:00,0,28171163,210199
OK,90,45,623,90,2014-10-01T20:50:00,0,28171600,210199
OK,90,45,623,90,2014-10-01T20:55:00,0,28172046,210199
OK,90,45,623,90,2014-10-01T21:00:00,0,28172494,210199
OK,90,45,623,90,2014-10-01T21:05:00,0,28172940,210199
OK,90,45,623,90,2014-10-01T21:10:00,0,28173386,210199
OK,90,45,623,90,2014-10-01T21:15:00,0,28173835,210199
OK,90,45,623,90,2014-10-01T21:20:00,0,28174276,210199
OK,90,45,623,90,2014-10-01T21:25:00,0,28174725,210199
OK,90,45,623,90,2014-10-01T21:30:00,0,28175151,210199
OK,90,45,623,90,2014-10-01T21:35:00,0,28175547,210199
OK,90,45,623,90,2014-10-01T21:40:00,0,28175996,210199
OK,90,45,623,90,2014-10-01T21:45:00,0,28176445,210199
OK,90,45,623,90,2014-10-01T21:50:00,0,28176894,210199
OK,90,45,623,90,2014-10-01T21:55:00,0,28177250,210199
OK,90,45,623,90,2014-10-01T22:00:00,0,28177690,210199
OK,90,45,623,90,2014-10-01T22:05:00,0,28178136,210199
OK,90,45,623,90,2014-10-01T22:10:00,0,28178585,210199
OK,90,45,623,90,2014-10-01T22:15:00,0,28179032,210199
OK,90,45,623,90,2014-10-01T22:20:00,0,28179466,210199
OK,90,45,623,90,2014-10-01T22:25:00,0,28179909,210199
OK,90,45,623,90,2014-10-01T22:30:00,0,28180356,210199
OK,90,45,623,90,2014-10-01T22:35:00,0,28180754,210199
OK,90,45,623,90,2014-10-01T22:40:00,0,28181203,210199
OK,90,45,623,90,2014-10-01T22:45:00,0,28181627,210199
OK,90,45,623,90,2014-10-01T22:50:00,0,28182075,210199
OK,90,45,623,90,2014-10-01T22:55:00,0,28182522,210199
OK,90,45,623,90,2014-10-01T23:00:00,0,28182971,210199
OK,90,45,623,90,2014-10-01T23:05:00,0,28183388,210199
OK,90,45,623,90,2014-10-01T23:10:00,0,28183821,210199
OK,90,45,623,90,2014-10-01T23:15:00,0,28184266,210199
OK,90,45,623,90,2014-10-01T23:20:00,0,28184715,210199
OK,90,45,623,90,2014-10-01T23:25:00,0,28185150,210199
OK,90,45,623,90,2014-10-01T23:30:00,0,28185598,210199
OK,90,45,623,90,2014-10-01T23:35:00,0,28186029,210199
OK,90,45,623,90,2014-10-01T23:40:00,0,28186421,210199
OK,90,45,623,90,2014-10-01T23:45:00,0,28186870,210199
OK,90,45,623,90,2014-10-01T23:50:00,0,28187268,210199
OK,90,45,623,90,2014-10-01T23:55:00,0,28187710,210199
OK,90,45,623,90,2014-10-02T00:00:00,0,28188159,210199
OK,90,45,623,90,2014-10-02T00:05:00,0,28188600,210199
OK,90,45,623,90,2014-10-02T00:10:00,0,28189036,210199
OK,90,45,623,90,2014-10-02T00:15:00,0,28189485,210199
OK,90,45,623,90,2014-10-02T00:20:00,0,28189907,210199
OK,90,45,623,90,2014-10-02T00:30:00,0,28190709,210199
OK,90,45,623,90,2014-10-02T00:35:00,0,28191158,210199
OK,90,45,623,90,2014-10-02T00:40:00,0,28191607,210199
OK,90,45,623,90,2014-10-02T00:45:00,0,28191913,210199
OK,90,45,623,90,2014-10-02T00:50:00,0,28192362,210199
OK,90,45,623,90,2014-10-02T00:55:00,0,28192795,210199
OK,90,45,623,90,2014-10-02T01:05:00,0,28193606,210199
OK,90,45,623,90,2014-10-02T01:10:00,0,28194055,210199
OK,90,45,623,90,2014-10-02T01:15:00,0,28194504,210199
OK,90,45,623,90,2014-10-02T01:25:00,0,28195189,210199
OK,90,45,623,90,2014-10-02T01:30:00,0,28195638,210199
OK,90,45,623,90,2014-10-02T01:35:00,0,28196087,210199
OK,90,45,623,90,2014-10-02T01:40:00,0,28196371,210199
OK,90,45,623,90,2014-10-02T01:45:00,0,28196820,210199
OK,90,45,623,90,2014-10-02T01:50:00,0,28197243,210199
OK,90,45,623,90,2014-10-02T01:55:00,0,28197692,210199
OK,90,45,623,90,2014-10-02T02:00:00,0,28198140,210199
OK,90,45,623,90,2014-10-02T02:05:00,0,28198588,210199
OK,90,45,623,90,2014-10-02T02:10:00,0,28199037,210199
OK,90,45,623,90,2014-10-02T02:15:00,0,28199409,210199
OK,90,45,623,90,2014-10-02T02:20:00,0,28199851,210199
OK,90,45,623,90,2014-10-02T02:25:00,0,28200293,210199
OK,90,45,623,90,2014-10-02T02:30:00,0,28200736,210199
OK,90,45,623,90,2014-10-02T02:35:00,0,28201185,210199
OK,90,45,623,90,2014-10-02T02:45:00,0,28201616,210199
OK,90,45,623,90,2014-10-02T02:50:00,0,28202065,210199
OK,90,45,623,90,2014-10-02T02:55:00,0,28202514,210199
OK,90,45,623,90,2014-10-02T03:00:00,0,28202956,210199
OK,90,45,623,90,2014-10-02T03:05:00,0,28203404,210199
OK,90,45,623,90,2014-10-02T03:15:00,0,28203839,210199
OK,90,45,623,90,2014-10-02T03:30:00,0,28204288,210199
OK,90,45,623,90,2014-10-02T03:35:00,0,28204737,210199
OK,90,45,623,90,2014-10-02T03:40:00,0,28205186,210199
OK,90,45,623,90,2014-10-02T03:45:00,0,28205614,210199
OK,90,45,623,90,2014-10-02T03:55:00,0,28206444,210199
OK,90,45,623,90,2014-10-02T04:00:00,0,28206893,210199
OK,90,45,623,90,2014-10-02T04:05:00,0,28207342,210199
OK,90,45,623,90,2014-10-02T04:10:00,0,28207761,210199
OK,90,45,623,90,2014-10-02T04:15:00,0,28208210,210199
OK,90,45,623,90,2014-10-02T04:20:00,0,28208637,210199
OK,90,45,623,90,2014-10-02T04:25:00,0,28209086,210199
OK,90,45,623,90,2014-10-02T04:30:00,0,28209524,210199
OK,90,45,623,90,2014-10-02T04:35:00,0,28209973,210199
OK,90,45,623,90,2014-10-02T04:40:00,0,28210396,210199
OK,90,45,623,90,2014-10-02T04:45:00,0,28210845,210199
OK,90,45,623,90,2014-10-02T04:50:00,0,28211270,210199
OK,90,45,623,90,2014-10-02T04:55:00,0,28211714,210199
OK,90,45,623,90,2014-10-02T05:00:00,0,28212092,210199
OK,90,45,623,90,2014-10-02T05:05:00,0,28212541,210199
OK,90,45,623,90,2014-10-02T05:10:00,0,28212970,210199
OK,90,45,623,90,2014-10-02T05:15:00,0,28213419,210199
OK,90,45,623,90,2014-10-02T05:20:00,0,28213857,210199
OK,90,45,623,90,2014-10-02T05:25:00,0,28214306,210199
OK,90,45,623,90,2014-10-02T05:30:00,0,28214719,210199
OK,90,45,623,90,2014-10-02T05:35:00,0,28215168,210199
OK,90,45,623,90,2014-10-02T05:40:00,0,28215584,210199
OK,90,45,623,90,2014-10-02T05:45:00,0,28216033,210199
OK,90,45,623,90,2014-10-02T05:50:00,0,28216372,210199
OK,90,45,623,90,2014-10-02T05:55:00,0,28216812,210199
OK,90,45,623,90,2014-10-02T06:00:00,0,28217259,210199
OK,90,45,623,90,2014-10-02T06:05:00,0,28217708,210199
OK,90,45,623,90,2014-10-02T06:10:00,0,28218147,210199
OK,90,45,623,90,2014-10-02T06:15:00,0,28218596,210199
OK,90,45,623,90,2014-10-02T06:20:00,0,28219016,210199
OK,223,18,623,223,2014-10-02T06:25:00,2,28219465,210199
OK,293,14,623,293,2014-10-02T06:30:00,1,28219838,210199
OK,293,14,623,293,2014-10-02T06:35:00,0,28220287,210199
OK,293,14,623,293,2014-10-02T06:40:00,0,28220721,210199
OK,293,14,623,293,2014-10-02T06:45:00,0,28221170,210199
OK,293,14,623,293,2014-10-02T07:00:00,0,28221837,210199
OK,293,14,623,293,2014-10-02T07:05:00,0,28221983,210199
OK,293,14,623,293,2014-10-02T07:10:00,0,28222431,210199
OK,293,14,623,293,2014-10-02T07:15:00,0,28222880,210199
OK,293,14,623,293,2014-10-02T07:20:00,0,28223311,210199
OK,293,14,623,293,2014-10-02T07:25:00,0,28223746,210199
OK,293,14,623,293,2014-10-02T07:30:00,0,28224194,210199
OK,293,14,623,293,2014-10-02T07:35:00,0,28224549,210199
OK,293,14,623,293,2014-10-02T07:40:00,0,28224998,210199
OK,78,52,623,78,2014-10-02T07:50:00,3,28225769,210199
OK,78,52,623,78,2014-10-02T07:55:00,0,28226218,210199
OK,78,52,623,78,2014-10-02T08:00:00,0,28226659,210199
OK,78,52,623,78,2014-10-02T08:05:00,0,28227108,210199
OK,78,52,623,78,2014-10-02T08:10:00,0,28227523,210199
OK,78,52,623,78,2014-10-02T08:15:00,0,28227972,210199
OK,78,52,623,78,2014-10-02T08:20:00,0,28228331,210199
OK,78,52,623,78,2014-10-02T08:25:00,0,28228780,210199
OK,78,52,623,78,2014-10-02T08:30:00,0,28229190,210199
OK,78,52,623,78,2014-10-02T08:35:00,0,28229639,210199
OK,78,52,623,78,2014-10-02T08:40:00,0,28229989,210199
OK,78,52,623,78,2014-10-02T08:45:00,0,28230438,210199
OK,78,52,623,78,2014-10-02T08:50:00,0,28230804,210199
OK,78,52,623,78,2014-10-02T08:55:00,0,28231251,210199
OK,78,52,623,78,2014-10-02T09:00:00,0,28231676,210199
OK,78,52,623,78,2014-10-02T09:05:00,0,28232125,210199
OK,78,52,623,78,2014-10-02T09:15:00,0,28232467,210199
OK,78,52,623,78,2014-10-02T09:20:00,0,28232916,210199
OK,78,52,623,78,2014-10-02T09:25:00,0,28233365,210199
OK,78,52,623,78,2014-10-02T09:30:00,0,28233789,210199
OK,78,52,623,78,2014-10-02T09:35:00,0,28234238,210199
OK,78,52,623,78,2014-10-02T09:40:00,0,28234571,210199
OK,78,52,623,78,2014-10-02T09:45:00,0,28235020,210199
OK,78,52,623,78,2014-10-02T09:50:00,0,28235447,210199
OK,78,52,623,78,2014-10-02T09:55:00,0,28235896,210199
OK,78,52,623,78,2014-10-02T10:00:00,0,28236339,210199
OK,78,52,623,78,2014-10-02T10:05:00,0,28236786,210199
OK,78,52,623,78,2014-10-02T10:10:00,0,28237188,210199
OK,78,52,623,78,2014-10-02T10:15:00,0,28237636,210199
OK,78,52,623,78,2014-10-02T10:20:00,0,28238085,210199
OK,78,52,623,78,2014-10-02T10:25:00,0,28238532,210199
OK,78,52,623,78,2014-10-02T10:30:00,0,28238973,210199
OK,78,52,623,78,2014-10-02T10:35:00,0,28239422,210199
OK,78,52,623,78,2014-10-02T10:40:00,0,28239852,210199
OK,78,52,623,78,2014-10-02T10:45:00,0,28240301,210199
OK,78,52,623,78,2014-10-02T10:50:00,0,28240745,210199
OK,78,52,623,78,2014-10-02T10:55:00,0,28241194,210199
OK,78,52,623,78,2014-10-02T11:00:00,0,28241626,210199
OK,78,52,623,78,2014-10-02T11:05:00,0,28242074,210199
OK,78,52,623,78,2014-10-02T11:10:00,0,28242470,210199
OK,78,52,623,78,2014-10-02T11:15:00,0,28242919,210199
OK,78,52,623,78,2014-10-02T11:20:00,0,28243368,210199
OK,78,52,623,78,2014-10-02T11:25:00,0,28243693,210199
OK,78,52,623,78,2014-10-02T11:30:00,0,28244131,210199
OK,232,17,623,232,2014-10-02T11:35:00,0,28244560,210199
OK,232,17,623,232,2014-10-02T11:40:00,0,28245009,210199
OK,232,17,623,232,2014-10-02T11:45:00,0,28245458,210199
OK,232,17,623,232,2014-10-02T11:50:00,0,28245864,210199
OK,232,17,623,232,2014-10-02T11:55:00,0,28246313,210199
OK,232,17,623,232,2014-10-02T12:00:00,0,28246750,210199
OK,232,17,623,232,2014-10-02T12:05:00,0,28247199,210199
OK,232,17,623,232,2014-10-02T12:10:00,0,28247645,210199
OK,232,17,623,232,2014-10-02T12:15:00,0,28248075,210199
OK,232,17,623,232,2014-10-02T12:20:00,0,28248524,210199
OK,232,17,623,232,2014-10-02T12:25:00,0,28248971,210199
OK,232,17,623,232,2014-10-02T12:30:00,0,28249399,210199
OK,232,17,623,232,2014-10-02T12:35:00,0,28249843,210199
OK,232,17,623,232,2014-10-02T12:45:00,0,28250660,210199
OK,232,17,623,232,2014-10-02T12:50:00,0,28251440,210199
OK,232,17,623,232,2014-10-02T13:00:00,0,28251480,210199
OK,0,0,623,0,2014-10-02T13:20:00,0,28251520,210199
OK,84,48,623,84,2014-10-02T13:30:00,0,28251985,210199
OK,84,48,623,84,2014-10-02T13:35:00,0,28252122,210199
OK,84,48,623,84,2014-10-02T13:40:00,0,28252569,210199
OK,84,48,623,84,2014-10-02T13:45:00,0,28253011,210199
OK,84,48,623,84,2014-10-02T13:50:00,0,28253428,210199
OK,84,48,623,84,2014-10-02T13:55:00,0,28253877,210199
OK,84,48,623,84,2014-10-02T14:10:00,0,28254608,210199
OK,74,55,623,74,2014-10-02T14:15:00,2,28254731,210199
OK,75,54,623,75,2014-10-02T14:20:00,1,28255180,210199
OK,75,54,623,75,2014-10-02T14:25:00,0,28255629,210199
OK,75,54,623,75,2014-10-02T14:30:00,0,28256057,210199
OK,75,54,623,75,2014-10-02T14:35:00,0,28256506,210199
OK,75,54,623,75,2014-10-02T14:40:00,0,28256934,210199
OK,75,54,623,75,2014-10-02T14:45:00,0,28257383,210199
OK,75,54,623,75,2014-10-02T14:50:00,0,28257824,210199
OK,75,54,623,75,2014-10-02T14:55:00,0,28258272,210199
OK,97,42,623,97,2014-10-02T15:00:00,2,28258705,210199
OK,97,42,623,97,2014-10-02T15:05:00,2,28259151,210199
OK,97,42,623,97,2014-10-02T15:10:00,0,28259600,210199
OK,97,42,623,97,2014-10-02T15:15:00,0,28260047,210199